Monte Cimone, Italy

11:36 AM CET on January 16, 2018 (GMT +0100)
Monte Cimone

Weather History for LIVC - December, 2012

Change the Weather History Date:

Sunday, December 23, 2012

  Actual Average Record
Temperature  
Mean Temperature 36 °F -  
Max Temperature 44 °F 29 °F 48 °F (2014)
Min Temperature 28 °F 21 °F 5 °F (2003)
Degree Days  
Heating Degree Days 29    
Moisture  
Dew Point 22 °F    
Average Humidity 51    
Maximum Humidity 70    
Minimum Humidity 25    
Precipitation  
Precipitation 0.00 in 0.07 in - ()
Sea Level Pressure  
Sea Level Pressure 30.09 in    
Wind  
Wind Speed 19 mph ()    
Max Wind Speed 29 mph    
Max Gust Speed -    
Visibility 9.6 miles    
Events      
Averages and records for this station are not official NWS values.
T = Trace of Precipitation, MM = Missing Value Source: Averaged Metar Reports

Daily Weather History Graph

Daily Weather History Graph

Search for Another Location

Airport or City:

Trip Planner

Search our weather history database for the weather conditions in past years. The results will help you decide how hot, cold, wet, or windy it might be!

Date:

Astronomy

Dec. 23, 2012 Rise Set
Actual Time 7:50 AM CET 4:42 PM CET
Civil Twilight 7:17 AM CET 5:15 PM CET
Nautical Twilight 6:40 AM CET 5:52 PM CET
Astronomical Twilight 6:05 AM CET 6:27 PM CET
Moon 1:28 PM CET (12/23) 3:11 AM CET (12/23)
Length of Visible Light 9h 58m
Length of Day
8h 52m
Waxing Gibbous, 79% of the Moon is Illuminated
Dec 23
Waxing Gibbous
Dec 28
Full
Jan 5
Last Quarter
Jan 11
New
Jan 19
First Quarter

Hourly Weather History & Observations

Time (CET) Temp. Windchill Dew Point Humidity Pressure Visibility Wind Dir Wind Speed Gust Speed Precip Events Conditions
12:55 AM 28.4 °F 14.7 °F 15.8 °F 59% 30.01 in - West 21.9 mph - N/A   Clear
1:00 AM 29 °F - 16 °F 45%  in 19 mi West 21.9 mph - -  
1:55 AM 28.4 °F 14.4 °F 14.0 °F 55% 30.01 in - NNE 23.0 mph - N/A   Clear
2:55 AM 30.2 °F 18.5 °F 14.0 °F 51% 30.01 in - West 17.3 mph - N/A   Clear
3:55 AM 32.0 °F 19.8 °F 19.4 °F 60% 30.01 in - NNW 20.7 mph - N/A   Clear
4:55 AM 32.0 °F 19.2 °F 21.2 °F 64% 30.01 in - NNW 23.0 mph - N/A   Clear
5:55 AM 33.8 °F 20.3 °F 24.8 °F 70% 30.01 in - WNW 28.8 mph - N/A   Clear
6:55 AM 37.4 °F 25.6 °F 26.6 °F 65% 30.01 in - NW 26.5 mph - N/A   Clear
7:00 AM 37 °F - 26 °F 53%  in 19 mi NW 26.5 mph - -  
7:55 AM 37.4 °F 27.5 °F 26.6 °F 65% 30.04 in 6.2 mi NW 18.4 mph - N/A   Partly Cloudy
8:55 AM 37.4 °F 26.4 °F 23.0 °F 56% 30.06 in 6.2 mi West 23.0 mph - N/A   Scattered Clouds
9:55 AM 39.2 °F 30.2 °F 23.0 °F 52% 30.06 in 6.2 mi West 17.3 mph - N/A   Scattered Clouds
10:55 AM 39.2 °F 28.5 °F 24.8 °F 56% 30.09 in 6.2 mi WNW 24.2 mph - N/A   Scattered Clouds
11:55 AM 39.2 °F 30.5 °F 24.8 °F 56% 30.09 in 6.2 mi WNW 16.1 mph - N/A   Mostly Cloudy
12:55 PM 39.2 °F 31.2 °F 24.8 °F 56% 30.09 in 6.2 mi West 13.8 mph - N/A   Scattered Clouds
1:00 PM 39 °F - 24 °F 42%  in 19 mi West 13.8 mph - -   Mostly Cloudy
1:55 PM 39.2 °F 29.8 °F 23.0 °F 52% 30.09 in 6.2 mi West 18.4 mph - N/A   Scattered Clouds
2:55 PM 41.0 °F 32.5 °F 24.8 °F 53% 30.09 in 6.2 mi West 17.3 mph - N/A   Scattered Clouds
3:55 PM 41.0 °F 31.6 °F 23.0 °F 49% 30.09 in 6.2 mi WNW 20.7 mph - N/A   Scattered Clouds
4:55 PM 41.0 °F 31.1 °F 24.8 °F 53% 30.09 in 6.2 mi WNW 23.0 mph - N/A   Scattered Clouds
5:55 PM 42.8 °F 33.1 °F 23.0 °F 46% 30.12 in 6.2 mi West 25.3 mph - N/A   Scattered Clouds
6:55 PM 42.8 °F 34.3 °F 19.4 °F 39% 30.15 in - WNW 19.6 mph - N/A   Clear
7:00 PM 43 °F - 19 °F 25%  in 19 mi WNW 19.6 mph - -  
7:55 PM 42.8 °F 36.2 °F 19.4 °F 39% 30.18 in - West 12.7 mph - N/A   Clear
8:55 PM 42.8 °F 36.6 °F 21.2 °F 42% 30.18 in - West 11.5 mph - N/A   Clear
9:55 PM 44.6 °F 37.8 °F 23.0 °F 43% 30.21 in - West 15.0 mph - N/A   Clear
10:55 PM 44.6 °F 35.9 °F 21.2 °F 39% 30.21 in - WNW 23.0 mph - N/A   Clear
11:55 PM 44.6 °F 36.4 °F 24.8 °F 46% 30.21 in - West 20.7 mph - N/A   Clear